TimePDT,TemperatureF,Dew PointF,Humidity,Sea Level PressureIn,VisibilityMPH,Wind Direction,Wind SpeedMPH,Gust SpeedMPH,PrecipitationIn,Events,Conditions,WindDirDegrees,DateUTC
12:56 AM,48.0,25.0,41,30.14,10.0,Calm,Calm,-,N/A,,Clear,0,2012-10-06 07:56:00
1:56 AM,46.9,26.1,44,30.14,10.0,Calm,Calm,-,N/A,,Clear,0,2012-10-06 08:56:00
2:56 AM,44.1,27.0,51,30.14,10.0,Calm,Calm,-,N/A,,Clear,0,2012-10-06 09:56:00
3:56 AM,42.1,28.0,58,30.13,10.0,Calm,Calm,-,N/A,,Clear,0,2012-10-06 10:56:00
4:56 AM,41.0,27.0,57,30.13,10.0,Calm,Calm,-,N/A,,Clear,0,2012-10-06 11:56:00
5:56 AM,39.0,28.0,65,30.13,10.0,Calm,Calm,-,N/A,,Clear,0,2012-10-06 12:56:00
6:56 AM,39.0,28.9,67,30.14,10.0,SE,3.5,-,N/A,,Clear,140,2012-10-06 13:56:00
7:56 AM,39.0,28.9,67,30.14,10.0,Calm,Calm,-,N/A,,Clear,0,2012-10-06 14:56:00
8:56 AM,48.0,30.0,50,30.14,10.0,Calm,Calm,-,N/A,,Clear,0,2012-10-06 15:56:00
9:56 AM,57.0,26.1,30,30.13,10.0,North,6.9,-,N/A,,Clear,350,2012-10-06 16:56:00
10:56 AM,62.1,28.9,29,30.12,10.0,Variable,5.8,-,N/A,,Clear,0,2012-10-06 17:56:00
11:56 AM,68.0,27.0,21,30.10,10.0,NNW,8.1,-,N/A,,Clear,340,2012-10-06 18:56:00
12:56 PM,73.9,21.9,14,30.08,10.0,North,9.2,-,N/A,,Clear,350,2012-10-06 19:56:00
1:56 PM,77.0,21.0,12,30.05,10.0,North,10.4,-,N/A,,Clear,360,2012-10-06 20:56:00
2:56 PM,79.0,19.9,11,30.03,10.0,North,11.5,-,N/A,,Clear,350,2012-10-06 21:56:00
3:56 PM,79.0,18.0,10,30.01,10.0,North,15.0,-,N/A,,Clear,360,2012-10-06 22:56:00
4:56 PM,77.0,19.9,12,29.99,10.0,NNW,16.1,23.0,N/A,,Clear,340,2012-10-06 23:56:00
5:56 PM,73.0,21.0,14,29.99,10.0,North,15.0,-,N/A,,Clear,350,2012-10-07 00:56:00
6:56 PM,66.9,21.0,17,29.99,10.0,North,12.7,-,N/A,,Clear,350,2012-10-07 01:56:00
7:56 PM,63.0,21.0,20,30.00,10.0,NNW,5.8,-,N/A,,Clear,330,2012-10-07 02:56:00
8:56 PM,59.0,21.9,24,30.01,10.0,WNW,3.5,-,N/A,,Clear,300,2012-10-07 03:56:00
9:56 PM,57.0,21.9,26,30.01,10.0,NW,4.6,-,N/A,,Clear,320,2012-10-07 04:56:00
10:56 PM,57.0,19.0,23,30.01,10.0,NW,4.6,-,N/A,,Clear,310,2012-10-07 05:56:00
11:56 PM,53.1,19.9,27,30.01,10.0,WNW,3.5,-,N/A,,Clear,300,2012-10-07 06:56:00